Pagina principală
METAR-TAF:

METAR-TAF

Aeroporturi :

Ambato, Ecuador

Latitudine: 01-12-43S, longitudine: 078-34-28W, elevație: 2591 m

Observații meteo curente

Raportul a fost făcut în urmă cu 10 ore și 38 de minute, la 23:00 UTC
Vânt 6 kt de la Sud/Sud-est
Temperatură 20°C
Umiditate 68%
Presiune 1028 hPa
Vizibilitate de 10 km sau mai mult
Nori împrăștiați la o înălțime de 3300 picior

METAR: SEAM 132300Z 16006KT 9999 SCT033 20/14 Q1028

Ora: 04:38 (09:38 UTC)


TAF: lipsă

Observații și prognoze meteo pentru peste 4.000 de aeroporturi (rapoarte METAR și TAF).

Stațiile disponibile sunt reprezentate pe hartă prin puncte galbene și roșii.

Țineți indicatorul mouse-ului pe punctul dorit pentru a vedea denumirea stației.

Apoi, faceți clic pentru a vedea observațiile și prognozele meteorologice.

Pentru a schimba harta: Pentru mărire, faceți clic pe butoanele verzi cu cruce neagră; pentru micșorare, pe butonul verde cu o liniuță; pentru hărți învecinate, pe săgețile verzi.


METAR-TAF: